Year,Month,Day,Hour,Minute,Value (Times are PST for temperature in C)
2009,04,21,00,00,10.20
2009,04,21,00,01,10.20
2009,04,21,00,02,10.20
2009,04,21,00,03,10.10
2009,04,21,00,04,10.10
2009,04,21,00,05,10.10
2009,04,21,00,06,10.10
2009,04,21,00,07,10.10
2009,04,21,00,08,10.10
2009,04,21,00,09,10.10
2009,04,21,00,10,10.10
2009,04,21,00,11,10.10
2009,04,21,00,12,10.10
2009,04,21,00,13,10.10
2009,04,21,00,14,10.10
2009,04,21,00,15,10.10
2009,04,21,00,16,10.20
2009,04,21,00,17,10.20
2009,04,21,00,18,10.20
2009,04,21,00,19,10.20
2009,04,21,00,20,10.20
2009,04,21,00,21,10.20
2009,04,21,00,22,10.20
2009,04,21,00,23,10.10
2009,04,21,00,24,10.10
2009,04,21,00,25,10.10
2009,04,21,00,26,10.10
2009,04,21,00,27,10.10
2009,04,21,00,28,10.10
2009,04,21,00,29,10.10
2009,04,21,00,30,10.10
2009,04,21,00,31,10.00
2009,04,21,00,32,10.00
2009,04,21,00,33,9.90
2009,04,21,00,34,9.90
2009,04,21,00,35,9.80
2009,04,21,00,36,9.80
2009,04,21,00,37,9.80
2009,04,21,00,38,9.70
2009,04,21,00,39,9.70
2009,04,21,00,40,9.70
2009,04,21,00,41,9.60
2009,04,21,00,42,9.60
2009,04,21,00,43,9.60
2009,04,21,00,44,9.60
2009,04,21,00,45,9.60
2009,04,21,00,46,9.50
2009,04,21,00,47,9.50
2009,04,21,00,48,9.50
2009,04,21,00,49,9.40
2009,04,21,00,50,9.40
2009,04,21,00,51,9.40
2009,04,21,00,52,9.40
2009,04,21,00,53,9.40
2009,04,21,00,54,9.40
2009,04,21,00,55,9.40
2009,04,21,00,56,9.40
2009,04,21,00,57,9.40
2009,04,21,00,58,9.30
2009,04,21,00,59,9.30
2009,04,21,01,00,9.30
2009,04,21,01,01,9.30
2009,04,21,01,02,9.30
2009,04,21,01,03,9.30
2009,04,21,01,04,9.30
2009,04,21,01,05,9.20
2009,04,21,01,06,9.20
2009,04,21,01,07,9.20
2009,04,21,01,08,9.20
2009,04,21,01,09,9.20
2009,04,21,01,10,9.20
2009,04,21,01,11,9.20
2009,04,21,01,12,9.20
2009,04,21,01,13,9.20
2009,04,21,01,14,9.10
2009,04,21,01,15,9.10
2009,04,21,01,16,9.10
2009,04,21,01,17,9.10
2009,04,21,01,18,9.10
2009,04,21,01,19,9.10
2009,04,21,01,20,9.10
2009,04,21,01,21,9.10
2009,04,21,01,22,9.00
2009,04,21,01,23,9.00
2009,04,21,01,24,9.00
2009,04,21,01,25,9.00
2009,04,21,01,26,9.00
2009,04,21,01,27,9.00
2009,04,21,01,28,9.00
2009,04,21,01,29,8.90
2009,04,21,01,30,9.00
2009,04,21,01,31,9.00
2009,04,21,01,32,9.00
2009,04,21,01,33,9.00
2009,04,21,01,34,8.90
2009,04,21,01,35,8.90
2009,04,21,01,36,8.90
2009,04,21,01,37,8.90
2009,04,21,01,38,8.90
2009,04,21,01,39,8.90
2009,04,21,01,40,8.90
2009,04,21,01,41,8.80
2009,04,21,01,42,8.80
2009,04,21,01,43,8.80
2009,04,21,01,44,8.80
2009,04,21,01,45,8.80
2009,04,21,01,46,8.80
2009,04,21,01,47,8.80
2009,04,21,01,48,8.80
2009,04,21,01,49,8.80
2009,04,21,01,50,8.80
2009,04,21,01,51,8.80
2009,04,21,01,52,8.80
2009,04,21,01,53,8.80
2009,04,21,01,54,8.80
2009,04,21,01,55,8.80
2009,04,21,01,56,8.90
2009,04,21,01,57,8.90
2009,04,21,01,58,8.90
2009,04,21,01,59,8.90
2009,04,21,02,00,8.90
2009,04,21,02,01,8.90
2009,04,21,02,02,9.00
2009,04,21,02,03,9.00
2009,04,21,02,04,9.00
2009,04,21,02,05,9.00
2009,04,21,02,06,9.00
2009,04,21,02,07,9.00
2009,04,21,02,08,9.00
2009,04,21,02,09,9.10
2009,04,21,02,10,9.10
2009,04,21,02,11,9.20
2009,04,21,02,12,9.20
2009,04,21,02,13,9.20
2009,04,21,02,14,9.20
2009,04,21,02,15,9.20
2009,04,21,02,16,9.30
2009,04,21,02,17,9.30
2009,04,21,02,18,9.30
2009,04,21,02,19,9.30
2009,04,21,02,20,9.30
2009,04,21,02,21,9.30
2009,04,21,02,22,9.30
2009,04,21,02,23,9.30
2009,04,21,02,24,9.30
2009,04,21,02,25,9.30
2009,04,21,02,26,9.30
2009,04,21,02,27,9.30
2009,04,21,02,28,9.30
2009,04,21,02,29,9.30
2009,04,21,02,30,9.30
2009,04,21,02,31,9.40
2009,04,21,02,32,9.40
2009,04,21,02,33,9.40
2009,04,21,02,34,9.40
2009,04,21,02,35,9.40
2009,04,21,02,36,9.40
2009,04,21,02,37,9.40
2009,04,21,02,38,9.40
2009,04,21,02,39,9.40
2009,04,21,02,40,9.40
2009,04,21,02,41,9.40
2009,04,21,02,42,9.40
2009,04,21,02,43,9.40
2009,04,21,02,44,9.30
2009,04,21,02,45,9.30
2009,04,21,02,46,9.30
2009,04,21,02,47,9.20
2009,04,21,02,48,9.20
2009,04,21,02,49,9.10
2009,04,21,02,50,9.10
2009,04,21,02,51,9.00
2009,04,21,02,52,9.00
2009,04,21,02,53,8.90
2009,04,21,02,54,8.90
2009,04,21,02,55,8.90
2009,04,21,02,56,8.90
2009,04,21,02,57,8.80
2009,04,21,02,58,8.80
2009,04,21,02,59,8.90
2009,04,21,03,00,8.90
2009,04,21,03,01,8.80
2009,04,21,03,02,8.80
2009,04,21,03,03,8.80
2009,04,21,03,04,8.80
2009,04,21,03,05,8.80
2009,04,21,03,06,8.80
2009,04,21,03,07,8.80
2009,04,21,03,08,8.80
2009,04,21,03,09,8.70
2009,04,21,03,10,8.70
2009,04,21,03,11,8.70
2009,04,21,03,12,8.70
2009,04,21,03,13,8.80
2009,04,21,03,14,8.80
2009,04,21,03,15,8.80
2009,04,21,03,16,8.80
2009,04,21,03,17,8.80
2009,04,21,03,18,8.80
2009,04,21,03,19,8.90
2009,04,21,03,20,8.90
2009,04,21,03,21,9.00
2009,04,21,03,22,9.10
2009,04,21,03,23,9.10
2009,04,21,03,24,9.10
2009,04,21,03,25,9.10
2009,04,21,03,26,9.10
2009,04,21,03,27,9.10
2009,04,21,03,28,9.00
2009,04,21,03,29,9.00
2009,04,21,03,30,8.90
2009,04,21,03,31,8.90
2009,04,21,03,32,8.90
2009,04,21,03,33,8.80
2009,04,21,03,34,8.80
2009,04,21,03,35,8.80
2009,04,21,03,36,8.80
2009,04,21,03,37,8.90
2009,04,21,03,38,9.00
2009,04,21,03,39,9.10
2009,04,21,03,40,9.10
2009,04,21,03,41,9.20
2009,04,21,03,42,9.20
2009,04,21,03,43,9.20
2009,04,21,03,44,9.30
2009,04,21,03,45,9.30
2009,04,21,03,46,9.40
2009,04,21,03,47,9.40
2009,04,21,03,48,9.50
2009,04,21,03,49,9.50
2009,04,21,03,50,9.60
2009,04,21,03,51,9.60
2009,04,21,03,52,9.60
2009,04,21,03,53,9.60
2009,04,21,03,54,9.60
2009,04,21,03,55,9.60
2009,04,21,03,56,9.60
2009,04,21,03,57,9.60
2009,04,21,03,58,9.50
2009,04,21,03,59,9.50
2009,04,21,04,00,9.50
2009,04,21,04,01,9.50
2009,04,21,04,02,9.50
2009,04,21,04,03,9.40
2009,04,21,04,04,9.40
2009,04,21,04,05,9.40
2009,04,21,04,06,9.30
2009,04,21,04,07,9.30
2009,04,21,04,08,9.30
2009,04,21,04,09,9.20
2009,04,21,04,10,9.20
2009,04,21,04,11,9.20
2009,04,21,04,12,9.20
2009,04,21,04,13,9.10
2009,04,21,04,14,9.10
2009,04,21,04,15,9.00
2009,04,21,04,16,9.00
2009,04,21,04,17,8.90
2009,04,21,04,18,8.90
2009,04,21,04,19,8.80
2009,04,21,04,20,8.60
2009,04,21,04,21,8.60
2009,04,21,04,22,8.50
2009,04,21,04,23,8.40
2009,04,21,04,24,8.40
2009,04,21,04,25,8.40
2009,04,21,04,26,8.30
2009,04,21,04,27,8.30
2009,04,21,04,28,8.20
2009,04,21,04,29,8.20
2009,04,21,04,30,8.10
2009,04,21,04,31,8.10
2009,04,21,04,32,8.00
2009,04,21,04,33,8.00
2009,04,21,04,34,8.00
2009,04,21,04,35,8.00
2009,04,21,04,36,8.10
2009,04,21,04,37,8.10
2009,04,21,04,38,8.10
2009,04,21,04,39,8.10
2009,04,21,04,40,8.10
2009,04,21,04,41,8.10
2009,04,21,04,42,8.10
2009,04,21,04,43,8.10
2009,04,21,04,44,8.10
2009,04,21,04,45,8.20
2009,04,21,04,46,8.20
2009,04,21,04,47,8.20
2009,04,21,04,48,8.20
2009,04,21,04,49,8.10
2009,04,21,04,50,8.10
2009,04,21,04,51,8.10
2009,04,21,04,52,8.10
2009,04,21,04,53,8.20
2009,04,21,04,54,8.30
2009,04,21,04,55,8.40
2009,04,21,04,56,8.50
2009,04,21,04,57,8.60
2009,04,21,04,58,8.60
2009,04,21,04,59,8.60
2009,04,21,05,00,8.60
2009,04,21,05,01,8.60
2009,04,21,05,02,8.50
2009,04,21,05,03,8.50
2009,04,21,05,04,8.40
2009,04,21,05,05,8.40
2009,04,21,05,06,8.30
2009,04,21,05,07,8.30
2009,04,21,05,08,8.20
2009,04,21,05,09,8.20
2009,04,21,05,10,8.10
2009,04,21,05,11,8.00
2009,04,21,05,12,7.90
2009,04,21,05,13,7.90
2009,04,21,05,14,7.90
2009,04,21,05,15,7.80
2009,04,21,05,16,7.80
2009,04,21,05,17,7.70
2009,04,21,05,18,7.70
2009,04,21,05,19,7.70
2009,04,21,05,20,7.60
2009,04,21,05,21,7.60
2009,04,21,05,22,7.50
2009,04,21,05,23,7.50
2009,04,21,05,24,7.40
2009,04,21,05,25,7.30
2009,04,21,05,26,7.20
2009,04,21,05,27,7.20
2009,04,21,05,28,7.20
2009,04,21,05,29,7.20
2009,04,21,05,30,7.10
2009,04,21,05,31,7.20
2009,04,21,05,32,7.10
2009,04,21,05,33,7.10
2009,04,21,05,34,7.00
2009,04,21,05,35,7.00
2009,04,21,05,36,7.00
2009,04,21,05,37,7.00
2009,04,21,05,38,7.10
2009,04,21,05,39,7.10
2009,04,21,05,40,7.20
2009,04,21,05,41,7.20
2009,04,21,05,42,7.20
2009,04,21,05,43,7.30
2009,04,21,05,44,7.30
2009,04,21,05,45,7.30
2009,04,21,05,46,7.40
2009,04,21,05,47,7.40
2009,04,21,05,48,7.40
2009,04,21,05,49,7.50
2009,04,21,05,50,7.50
2009,04,21,05,51,7.50
2009,04,21,05,52,7.60
2009,04,21,05,53,7.60
2009,04,21,05,54,7.60
2009,04,21,05,55,7.60
2009,04,21,05,56,7.60
2009,04,21,05,57,7.50
2009,04,21,05,58,7.50
2009,04,21,05,59,7.50
2009,04,21,06,00,7.40
2009,04,21,06,01,7.40
2009,04,21,06,02,7.40
2009,04,21,06,03,7.30
2009,04,21,06,04,7.30
2009,04,21,06,05,7.30
2009,04,21,06,06,7.20
2009,04,21,06,07,7.20
2009,04,21,06,08,7.20
2009,04,21,06,09,7.20
2009,04,21,06,10,7.10
2009,04,21,06,11,7.10
2009,04,21,06,12,7.00
2009,04,21,06,13,7.00
2009,04,21,06,14,6.90
2009,04,21,06,15,6.90
2009,04,21,06,16,6.90
2009,04,21,06,17,6.80
2009,04,21,06,18,6.80
2009,04,21,06,19,6.80
2009,04,21,06,20,6.80
2009,04,21,06,21,6.80
2009,04,21,06,22,6.80
2009,04,21,06,23,6.80
2009,04,21,06,24,6.80
2009,04,21,06,25,6.70
2009,04,21,06,26,6.70
2009,04,21,06,27,6.70
2009,04,21,06,28,6.70
2009,04,21,06,29,6.70
2009,04,21,06,30,6.70
2009,04,21,06,31,6.70
2009,04,21,06,32,6.70
2009,04,21,06,33,6.70
2009,04,21,06,34,6.80
2009,04,21,06,35,6.80
2009,04,21,06,36,6.80
2009,04,21,06,37,6.90
2009,04,21,06,38,6.90
2009,04,21,06,39,6.90
2009,04,21,06,40,7.00
2009,04,21,06,41,7.00
2009,04,21,06,42,7.00
2009,04,21,06,43,7.10
2009,04,21,06,44,7.10
2009,04,21,06,45,7.10
2009,04,21,06,46,7.20
2009,04,21,06,47,7.20
2009,04,21,06,48,7.20
2009,04,21,06,49,7.20
2009,04,21,06,50,7.20
2009,04,21,06,51,7.20
2009,04,21,06,52,7.30
2009,04,21,06,53,7.30
2009,04,21,06,54,7.30
2009,04,21,06,55,7.30
2009,04,21,06,56,7.30
2009,04,21,06,57,7.30
2009,04,21,06,58,7.40
2009,04,21,06,59,7.40
2009,04,21,07,00,7.50
2009,04,21,07,01,7.50
2009,04,21,07,02,7.50
2009,04,21,07,03,7.60
2009,04,21,07,04,7.60
2009,04,21,07,05,7.60
2009,04,21,07,06,7.60
2009,04,21,07,07,7.70
2009,04,21,07,08,7.70
2009,04,21,07,09,7.70
2009,04,21,07,10,7.70
2009,04,21,07,11,7.70
2009,04,21,07,12,7.80
2009,04,21,07,13,7.80
2009,04,21,07,14,7.80
2009,04,21,07,15,7.80
2009,04,21,07,16,7.90
2009,04,21,07,17,7.90
2009,04,21,07,18,7.90
2009,04,21,07,19,8.00
2009,04,21,07,20,8.00
2009,04,21,07,21,8.10
2009,04,21,07,22,8.10
2009,04,21,07,23,8.20
2009,04,21,07,24,8.30
2009,04,21,07,25,8.30
2009,04,21,07,26,8.40
2009,04,21,07,27,8.50
2009,04,21,07,28,8.60
2009,04,21,07,29,8.60
2009,04,21,07,30,8.60
2009,04,21,07,31,8.70
2009,04,21,07,32,8.70
2009,04,21,07,33,8.70
2009,04,21,07,34,8.80
2009,04,21,07,35,8.80
2009,04,21,07,36,8.80
2009,04,21,07,37,8.80
2009,04,21,07,38,8.90
2009,04,21,07,39,8.90
2009,04,21,07,40,8.90
2009,04,21,07,41,9.00
2009,04,21,07,42,9.00
2009,04,21,07,43,9.00
2009,04,21,07,44,9.00
2009,04,21,07,45,9.00
2009,04,21,07,46,9.10
2009,04,21,07,47,9.10
2009,04,21,07,48,9.10
2009,04,21,07,49,9.20
2009,04,21,07,50,9.30
2009,04,21,07,51,9.40
2009,04,21,07,52,9.50
2009,04,21,07,53,9.50
2009,04,21,07,54,9.60
2009,04,21,07,55,9.70
2009,04,21,07,56,9.70
2009,04,21,07,57,9.80
2009,04,21,07,58,9.80
2009,04,21,07,59,9.90
2009,04,21,08,00,9.90
2009,04,21,08,01,10.00
2009,04,21,08,02,10.10
2009,04,21,08,03,10.10
2009,04,21,08,04,10.10
2009,04,21,08,05,10.10
2009,04,21,08,06,10.20
2009,04,21,08,07,10.30
2009,04,21,08,08,10.50
2009,04,21,08,09,10.60
2009,04,21,08,10,10.70
2009,04,21,08,11,10.70
2009,04,21,08,12,10.80
2009,04,21,08,13,10.90
2009,04,21,08,14,10.90
2009,04,21,08,15,10.90
2009,04,21,08,16,11.00
2009,04,21,08,17,11.10
2009,04,21,08,18,11.10
2009,04,21,08,19,11.20
2009,04,21,08,20,11.20
2009,04,21,08,21,11.30
2009,04,21,08,22,11.30
2009,04,21,08,23,11.30
2009,04,21,08,24,11.40
2009,04,21,08,25,11.40
2009,04,21,08,26,11.40
2009,04,21,08,27,11.40
2009,04,21,08,28,11.40
2009,04,21,08,29,11.40
2009,04,21,08,30,11.50
2009,04,21,08,31,11.50
2009,04,21,08,32,11.60
2009,04,21,08,33,11.60
2009,04,21,08,34,11.60
2009,04,21,08,35,11.60
2009,04,21,08,36,11.60
2009,04,21,08,37,11.70
2009,04,21,08,38,11.70
2009,04,21,08,39,11.70
2009,04,21,08,40,11.70
2009,04,21,08,41,11.80
2009,04,21,08,42,11.80
2009,04,21,08,43,11.80
2009,04,21,08,44,11.80
2009,04,21,08,45,11.80
2009,04,21,08,46,11.80
2009,04,21,08,47,11.80
2009,04,21,08,48,11.70
2009,04,21,08,49,11.80
2009,04,21,08,50,11.80
2009,04,21,08,51,11.80
2009,04,21,08,52,11.80
2009,04,21,08,53,11.80
2009,04,21,08,54,11.80
2009,04,21,08,55,11.80
2009,04,21,08,56,11.80
2009,04,21,08,57,11.80
2009,04,21,08,58,11.80
2009,04,21,08,59,11.90
2009,04,21,09,00,11.90
2009,04,21,09,01,11.90
2009,04,21,09,02,11.90
2009,04,21,09,03,11.90
2009,04,21,09,04,12.00
2009,04,21,09,05,12.10
2009,04,21,09,06,12.20
2009,04,21,09,07,12.20
2009,04,21,09,08,12.20
2009,04,21,09,09,12.20
2009,04,21,09,10,12.10
2009,04,21,09,11,12.20
2009,04,21,09,12,12.20
2009,04,21,09,13,12.10
2009,04,21,09,14,12.00
2009,04,21,09,15,11.80
2009,04,21,09,16,11.70
2009,04,21,09,17,11.70
2009,04,21,09,18,11.70
2009,04,21,09,19,11.70
2009,04,21,09,20,11.70
2009,04,21,09,21,11.70
2009,04,21,09,22,11.70
2009,04,21,09,23,11.70
2009,04,21,09,24,11.70
2009,04,21,09,25,11.70
2009,04,21,09,26,11.60
2009,04,21,09,27,11.50
2009,04,21,09,28,11.40
2009,04,21,09,29,11.40
2009,04,21,09,30,11.50
2009,04,21,09,31,11.50
2009,04,21,09,32,11.60
2009,04,21,09,33,11.60
2009,04,21,09,34,11.50
2009,04,21,09,35,11.60
2009,04,21,09,36,11.60
2009,04,21,09,37,11.70
2009,04,21,09,38,11.80
2009,04,21,09,39,11.80
2009,04,21,09,40,11.80
2009,04,21,09,41,11.80
2009,04,21,09,42,11.90
2009,04,21,09,43,12.00
2009,04,21,09,44,12.10
2009,04,21,09,45,12.10
2009,04,21,09,46,12.20
2009,04,21,09,47,12.20
2009,04,21,09,48,12.30
2009,04,21,09,49,12.30
2009,04,21,09,50,12.30
2009,04,21,09,51,12.30
2009,04,21,09,52,12.30
2009,04,21,09,53,12.30
2009,04,21,09,54,12.20
2009,04,21,09,55,12.20
2009,04,21,09,56,12.30
2009,04,21,09,57,12.30
2009,04,21,09,58,12.20
2009,04,21,09,59,12.20
2009,04,21,10,00,12.30
2009,04,21,10,01,12.30
2009,04,21,10,02,12.40
2009,04,21,10,03,12.40
2009,04,21,10,04,12.30
2009,04,21,10,05,12.20
2009,04,21,10,06,12.30
2009,04,21,10,07,12.20
2009,04,21,10,08,12.20
2009,04,21,10,09,12.30
2009,04,21,10,10,12.40
2009,04,21,10,11,12.30
2009,04,21,10,12,12.20
2009,04,21,10,13,12.20
2009,04,21,10,14,12.20
2009,04,21,10,15,12.10
2009,04,21,10,16,12.00
2009,04,21,10,17,12.00
2009,04,21,10,18,12.00
2009,04,21,10,19,12.00
2009,04,21,10,20,12.00
2009,04,21,10,21,11.80
2009,04,21,10,22,11.60
2009,04,21,10,23,11.50
2009,04,21,10,24,11.40
2009,04,21,10,25,11.30
2009,04,21,10,26,11.30
2009,04,21,10,27,11.20
2009,04,21,10,28,11.30
2009,04,21,10,29,11.30
2009,04,21,10,30,11.30
2009,04,21,10,31,11.40
2009,04,21,10,32,11.50
2009,04,21,10,33,11.50
2009,04,21,10,34,11.40
2009,04,21,10,35,11.40
2009,04,21,10,36,11.30
2009,04,21,10,37,11.30
2009,04,21,10,38,11.30
2009,04,21,10,39,11.30
2009,04,21,10,40,11.30
2009,04,21,10,41,11.20
2009,04,21,10,42,11.20
2009,04,21,10,43,11.10
2009,04,21,10,44,11.00
2009,04,21,10,45,11.00
2009,04,21,10,46,11.00
2009,04,21,10,47,11.00
2009,04,21,10,48,11.10
2009,04,21,10,49,11.20
2009,04,21,10,50,11.20
2009,04,21,10,51,11.40
2009,04,21,10,52,11.50
2009,04,21,10,53,11.50
2009,04,21,10,54,11.60
2009,04,21,10,55,11.60
2009,04,21,10,56,11.70
2009,04,21,10,57,11.80
2009,04,21,10,58,11.80
2009,04,21,10,59,12.00
2009,04,21,11,00,12.00
2009,04,21,11,01,12.00
2009,04,21,11,02,12.00
2009,04,21,11,03,12.00
2009,04,21,11,04,12.00
2009,04,21,11,05,12.00
2009,04,21,11,06,11.90
2009,04,21,11,07,11.90
2009,04,21,11,08,11.80
2009,04,21,11,09,11.80
2009,04,21,11,10,11.80
2009,04,21,11,11,11.80
2009,04,21,11,12,11.70
2009,04,21,11,13,11.70
2009,04,21,11,14,11.80
2009,04,21,11,15,11.90
2009,04,21,11,16,11.90
2009,04,21,11,17,12.00
2009,04,21,11,18,11.90
2009,04,21,11,19,12.00
2009,04,21,11,20,12.00
2009,04,21,11,21,12.00
2009,04,21,11,22,12.00
2009,04,21,11,23,12.10
2009,04,21,11,24,12.10
2009,04,21,11,25,12.10
2009,04,21,11,26,12.20
2009,04,21,11,27,12.30
2009,04,21,11,28,12.30
2009,04,21,11,29,12.10
2009,04,21,11,30,12.10
2009,04,21,11,31,12.00
2009,04,21,11,32,11.90
2009,04,21,11,33,11.80
2009,04,21,11,34,11.80
2009,04,21,11,35,11.80
2009,04,21,11,36,11.80
2009,04,21,11,37,11.80
2009,04,21,11,38,11.70
2009,04,21,11,39,11.70
2009,04,21,11,40,11.70
2009,04,21,11,41,11.70
2009,04,21,11,42,11.60
2009,04,21,11,43,11.60
2009,04,21,11,44,11.60
2009,04,21,11,45,11.60
2009,04,21,11,46,11.70
2009,04,21,11,47,11.70
2009,04,21,11,48,11.70
2009,04,21,11,49,11.60
2009,04,21,11,50,11.50
2009,04,21,11,51,11.40
2009,04,21,11,52,11.40
2009,04,21,11,53,11.40
2009,04,21,11,54,11.40
2009,04,21,11,55,11.40
2009,04,21,11,56,11.50
2009,04,21,11,57,11.60
2009,04,21,11,58,11.70
2009,04,21,11,59,11.60
2009,04,21,12,00,11.60
2009,04,21,12,01,11.60
2009,04,21,12,02,11.40
2009,04,21,12,03,11.30
2009,04,21,12,04,11.20
2009,04,21,12,05,11.20
2009,04,21,12,06,11.30
2009,04,21,12,07,11.30
2009,04,21,12,08,11.30
2009,04,21,12,09,11.40
2009,04,21,12,10,11.40
2009,04,21,12,11,11.50
2009,04,21,12,12,11.60
2009,04,21,12,13,11.70
2009,04,21,12,14,11.80
2009,04,21,12,15,11.80
2009,04,21,12,16,11.90
2009,04,21,12,17,11.90
2009,04,21,12,18,12.00
2009,04,21,12,19,12.10
2009,04,21,12,20,12.20
2009,04,21,12,21,12.30
2009,04,21,12,22,12.40
2009,04,21,12,23,12.40
2009,04,21,12,24,12.50
2009,04,21,12,25,12.60
2009,04,21,12,26,12.60
2009,04,21,12,27,12.70
2009,04,21,12,28,12.60
2009,04,21,12,29,12.60
2009,04,21,12,30,12.50
2009,04,21,12,31,12.40
2009,04,21,12,32,12.50
2009,04,21,12,33,12.60
2009,04,21,12,34,12.50
2009,04,21,12,35,12.50
2009,04,21,12,36,12.40
2009,04,21,12,37,12.40
2009,04,21,12,38,12.40
2009,04,21,12,39,12.40
2009,04,21,12,40,12.30
2009,04,21,12,41,12.40
2009,04,21,12,42,12.50
2009,04,21,12,43,12.70
2009,04,21,12,44,12.80
2009,04,21,12,45,12.80
2009,04,21,12,46,12.80
2009,04,21,12,47,12.80
2009,04,21,12,48,12.80
2009,04,21,12,49,12.80
2009,04,21,12,50,12.90
2009,04,21,12,51,12.90
2009,04,21,12,52,12.90
2009,04,21,12,53,12.90
2009,04,21,12,54,12.90
2009,04,21,12,55,12.90
2009,04,21,12,56,13.00
2009,04,21,12,57,13.10
2009,04,21,12,58,13.10
2009,04,21,12,59,13.10
2009,04,21,13,00,13.10
2009,04,21,13,01,13.00
2009,04,21,13,02,13.00
2009,04,21,13,03,13.10
2009,04,21,13,04,13.10
2009,04,21,13,05,13.10
2009,04,21,13,06,13.20
2009,04,21,13,07,13.30
2009,04,21,13,08,13.20
2009,04,21,13,09,13.10
2009,04,21,13,10,13.00
2009,04,21,13,11,13.00
2009,04,21,13,12,13.00
2009,04,21,13,13,13.00
2009,04,21,13,14,12.90
2009,04,21,13,15,13.00
2009,04,21,13,16,13.00
2009,04,21,13,17,13.00
2009,04,21,13,18,13.00
2009,04,21,13,19,12.90
2009,04,21,13,20,12.90
2009,04,21,13,21,12.90
2009,04,21,13,22,13.00
2009,04,21,13,23,13.10
2009,04,21,13,24,13.20
2009,04,21,13,25,13.10
2009,04,21,13,26,13.10
2009,04,21,13,27,13.10
2009,04,21,13,28,13.10
2009,04,21,13,29,13.20
2009,04,21,13,30,13.30
2009,04,21,13,31,13.20
2009,04,21,13,32,13.10
2009,04,21,13,33,13.10
2009,04,21,13,34,13.10
2009,04,21,13,35,13.00
2009,04,21,13,36,12.90
2009,04,21,13,37,12.70
2009,04,21,13,38,12.50
2009,04,21,13,39,12.40
2009,04,21,13,40,12.50
2009,04,21,13,41,12.60
2009,04,21,13,42,12.70
2009,04,21,13,43,12.80
2009,04,21,13,44,12.80
2009,04,21,13,45,12.70
2009,04,21,13,46,12.60
2009,04,21,13,47,12.50
2009,04,21,13,48,12.50
2009,04,21,13,49,12.60
2009,04,21,13,50,12.50
2009,04,21,13,51,12.50
2009,04,21,13,52,12.50
2009,04,21,13,53,12.40
2009,04,21,13,54,12.40
2009,04,21,13,55,12.50
2009,04,21,13,56,12.70
2009,04,21,13,57,12.70
2009,04,21,13,58,12.70
2009,04,21,13,59,12.70
2009,04,21,14,00,12.80
2009,04,21,14,01,12.80
2009,04,21,14,02,12.90
2009,04,21,14,03,13.00
2009,04,21,14,04,13.20
2009,04,21,14,05,13.20
2009,04,21,14,06,13.30
2009,04,21,14,07,13.50
2009,04,21,14,08,13.70
2009,04,21,14,09,13.90
2009,04,21,14,10,14.10
2009,04,21,14,11,14.30
2009,04,21,14,12,14.40
2009,04,21,14,13,14.50
2009,04,21,14,14,14.60
2009,04,21,14,15,14.80
2009,04,21,14,16,15.00
2009,04,21,14,17,15.00
2009,04,21,14,18,15.00
2009,04,21,14,19,15.00
2009,04,21,14,20,15.00
2009,04,21,14,21,15.20
2009,04,21,14,22,15.40
2009,04,21,14,23,15.70
2009,04,21,14,24,15.90
2009,04,21,14,25,16.10
2009,04,21,14,26,16.40
2009,04,21,14,27,16.60
2009,04,21,14,28,16.70
2009,04,21,14,29,16.60
2009,04,21,14,30,16.60
2009,04,21,14,31,16.60
2009,04,21,14,32,16.80
2009,04,21,14,33,16.90
2009,04,21,14,34,17.00
2009,04,21,14,35,17.20
2009,04,21,14,36,17.40
2009,04,21,14,37,17.60
2009,04,21,14,38,18.10
2009,04,21,14,39,18.40
2009,04,21,14,40,18.70
2009,04,21,14,41,19.00
2009,04,21,14,42,19.30
2009,04,21,14,43,19.50
2009,04,21,14,44,19.70
2009,04,21,14,45,20.00
2009,04,21,14,46,20.20
2009,04,21,14,47,20.30
2009,04,21,14,48,20.40
2009,04,21,14,49,20.40
2009,04,21,14,50,20.40
2009,04,21,14,51,20.40
2009,04,21,14,52,20.40
2009,04,21,14,53,20.40
2009,04,21,14,54,20.30
2009,04,21,14,55,20.40
2009,04,21,14,56,20.40
2009,04,21,14,57,20.40
2009,04,21,14,58,20.30
2009,04,21,14,59,20.30
2009,04,21,15,00,20.30
2009,04,21,15,01,20.30
2009,04,21,15,02,20.30
2009,04,21,15,03,20.30
2009,04,21,15,04,20.30
2009,04,21,15,05,20.40
2009,04,21,15,06,20.40
2009,04,21,15,07,20.40
2009,04,21,15,08,20.40
2009,04,21,15,09,20.30
2009,04,21,15,10,20.30
2009,04,21,15,11,20.30
2009,04,21,15,12,20.40
2009,04,21,15,13,20.50
2009,04,21,15,14,20.50
2009,04,21,15,15,20.40
2009,04,21,15,16,20.30
2009,04,21,15,17,20.30
2009,04,21,15,18,20.40
2009,04,21,15,19,20.40
2009,04,21,15,20,20.40
2009,04,21,15,21,20.40
2009,04,21,15,22,20.50
2009,04,21,15,23,20.50
2009,04,21,15,24,20.50
2009,04,21,15,25,20.40
2009,04,21,15,26,20.30
2009,04,21,15,27,20.30
2009,04,21,15,28,20.30
2009,04,21,15,29,20.40
2009,04,21,15,30,20.40
2009,04,21,15,31,20.50
2009,04,21,15,32,20.40
2009,04,21,15,33,20.40
2009,04,21,15,34,20.40
2009,04,21,15,35,20.50
2009,04,21,15,36,20.40
2009,04,21,15,37,20.40
2009,04,21,15,38,20.40
2009,04,21,15,39,20.50
2009,04,21,15,40,20.60
2009,04,21,15,41,20.50
2009,04,21,15,42,20.40
2009,04,21,15,43,20.40
2009,04,21,15,44,20.40
2009,04,21,15,45,20.30
2009,04,21,15,46,20.40
2009,04,21,15,47,20.40
2009,04,21,15,48,20.50
2009,04,21,15,49,20.50
2009,04,21,15,50,20.40
2009,04,21,15,51,20.40
2009,04,21,15,52,20.40
2009,04,21,15,53,20.40
2009,04,21,15,54,20.40
2009,04,21,15,55,20.50
2009,04,21,15,56,20.50
2009,04,21,15,57,20.60
2009,04,21,15,58,20.60
2009,04,21,15,59,20.60
2009,04,21,16,00,20.70
2009,04,21,16,01,20.70
2009,04,21,16,02,20.60
2009,04,21,16,03,20.50
2009,04,21,16,04,20.50
2009,04,21,16,05,20.50
2009,04,21,16,06,20.50
2009,04,21,16,07,20.30
2009,04,21,16,08,20.00
2009,04,21,16,09,19.80
2009,04,21,16,10,19.70
2009,04,21,16,11,19.60
2009,04,21,16,12,19.50
2009,04,21,16,13,19.50
2009,04,21,16,14,19.60
2009,04,21,16,15,19.60
2009,04,21,16,16,19.70
2009,04,21,16,17,19.70
2009,04,21,16,18,19.60
2009,04,21,16,19,19.70
2009,04,21,16,20,19.80
2009,04,21,16,21,19.90
2009,04,21,16,22,19.90
2009,04,21,16,23,19.70
2009,04,21,16,24,19.60
2009,04,21,16,25,19.60
2009,04,21,16,26,19.70
2009,04,21,16,27,19.70
2009,04,21,16,28,19.60
2009,04,21,16,29,19.60
2009,04,21,16,30,19.70
2009,04,21,16,31,19.60
2009,04,21,16,32,19.50
2009,04,21,16,33,19.40
2009,04,21,16,34,19.50
2009,04,21,16,35,19.40
2009,04,21,16,36,19.60
2009,04,21,16,37,19.70
2009,04,21,16,38,19.90
2009,04,21,16,39,19.90
2009,04,21,16,40,19.90
2009,04,21,16,41,19.80
2009,04,21,16,42,19.80
2009,04,21,16,43,19.70
2009,04,21,16,44,19.70
2009,04,21,16,45,19.70
2009,04,21,16,46,19.60
2009,04,21,16,47,19.40
2009,04,21,16,48,19.10
2009,04,21,16,49,18.90
2009,04,21,16,50,18.70
2009,04,21,16,51,18.70
2009,04,21,16,52,18.70
2009,04,21,16,53,18.60
2009,04,21,16,54,18.60
2009,04,21,16,55,18.60
2009,04,21,16,56,18.50
2009,04,21,16,57,18.50
2009,04,21,16,58,18.50
2009,04,21,16,59,18.50
2009,04,21,17,00,18.50
2009,04,21,17,01,18.40
2009,04,21,17,02,18.50
2009,04,21,17,03,18.50
2009,04,21,17,04,18.60
2009,04,21,17,05,18.60
2009,04,21,17,06,18.60
2009,04,21,17,07,18.50
2009,04,21,17,08,18.40
2009,04,21,17,09,18.30
2009,04,21,17,10,18.30
2009,04,21,17,11,18.30
2009,04,21,17,12,18.40
2009,04,21,17,13,18.40
2009,04,21,17,14,18.30
2009,04,21,17,15,18.30
2009,04,21,17,16,18.30
2009,04,21,17,17,18.30
2009,04,21,17,18,18.30
2009,04,21,17,19,18.20
2009,04,21,17,20,18.20
2009,04,21,17,21,18.10
2009,04,21,17,22,18.10
2009,04,21,17,23,18.20
2009,04,21,17,24,18.40
2009,04,21,17,25,18.70
2009,04,21,17,26,19.00
2009,04,21,17,27,19.20
2009,04,21,17,28,19.30
2009,04,21,17,29,19.40
2009,04,21,17,30,19.40
2009,04,21,17,31,19.50
2009,04,21,17,32,19.60
2009,04,21,17,33,19.60
2009,04,21,17,34,19.60
2009,04,21,17,35,19.70
2009,04,21,17,36,19.70
2009,04,21,17,37,19.70
2009,04,21,17,38,19.70